Precipitable_Water
0.64 0.66 0.66 0.68 0.56 0.58 0.60 0.63 0.67 0.68 0.76 0.80 0.83 0.88 0.94 0.97 0.98 0.97 0.94 0.89 0.79 0.74 0.69 0.71 0.66 0.66 0.67 0.68 0.67 0.66 0.63 0.63 0.64 0.67 0.65 0.65 0.66 0.64 0.63 0.62 0.63 0.64 0.63
0.64 0.59 0.61 0.63 0.54 0.57 0.57 0.59 0.62 0.72 0.76 0.78 0.80 0.85 0.93 0.98 0.98 0.94 0.91 0.85 0.77 0.68 0.67 0.70 0.72 0.68 0.68 0.70 0.68 0.64 0.69 0.66 0.65 0.66 0.67 0.66 0.65 0.66 0.65 0.64 0.62 0.61 0.62
0.58 0.57 0.56 0.62 0.58 0.58 0.58 0.58 0.67 0.75 0.75 0.79 0.80 0.88 0.93 0.95 0.92 0.87 0.83 0.78 0.71 0.68 0.65 0.65 0.72 0.71 0.71 0.67 0.67 0.67 0.64 0.63 0.64 0.66 0.65 0.68 0.66 0.67 0.66 0.65 0.64 0.63 0.62
0.61 0.60 0.56 0.59 0.64 0.60 0.56 0.57 0.65 0.67 0.70 0.72 0.76 0.84 0.90 0.90 0.86 0.85 0.79 0.75 0.71 0.69 0.65 0.60 0.64 0.67 0.69 0.68 0.67 0.69 0.66 0.63 0.63 0.64 0.66 0.68 0.69 0.68 0.66 0.69 0.65 0.65 0.65
0.61 0.58 0.56 0.56 0.59 0.58 0.56 0.55 0.61 0.63 0.65 0.68 0.72 0.75 0.81 0.82 0.80 0.81 0.74 0.70 0.67 0.63 0.59 0.57 0.56 0.61 0.64 0.66 0.65 0.68 0.67 0.63 0.62 0.64 0.65 0.66 0.71 0.70 0.70 0.69 0.68 0.67 0.66
0.57 0.55 0.54 0.55 0.58 0.56 0.56 0.55 0.56 0.62 0.63 0.64 0.68 0.71 0.73 0.72 0.72 0.70 0.68 0.67 0.63 0.60 0.53 0.50 0.51 0.50 0.56 0.63 0.68 0.66 0.68 0.64 0.63 0.64 0.65 0.66 0.70 0.70 0.69 0.67 0.64 0.67 0.67
0.56 0.54 0.53 0.55 0.57 0.54 0.55 0.56 0.55 0.54 0.58 0.63 0.60 0.64 0.66 0.69 0.66 0.64 0.64 0.62 0.59 0.57 0.57 0.55 0.54 0.52 0.48 0.54 0.59 0.63 0.67 0.66 0.62 0.60 0.62 0.65 0.67 0.67 0.68 0.65 0.65 0.66 0.67
0.55 0.53 0.52 0.52 0.55 0.55 0.56 0.56 0.54 0.52 0.55 0.61 0.55 0.55 0.47 0.53 0.59 0.62 0.61 0.60 0.60 0.59 0.57 0.59 0.57 0.55 0.50 0.43 0.48 0.55 0.61 0.70 0.66 0.61 0.63 0.65 0.68 0.68 0.67 0.68 0.65 0.65 0.65
0.55 0.53 0.53 0.53 0.54 0.56 0.54 0.55 0.55 0.53 0.51 0.63 0.64 0.50 0.41 0.35 0.47 0.58 0.57 0.59 0.59 0.59 0.59 0.58 0.57 0.56 0.52 0.50 0.46 0.48 0.60 0.66 0.65 0.62 0.64 0.67 0.67 0.66 0.69 0.64 0.64 0.62 0.62
0.56 0.54 0.53 0.54 0.54 0.56 0.55 0.57 0.60 0.58 0.58 0.56 0.62 0.61 0.54 0.46 0.37 0.35 0.51 0.53 0.58 0.56 0.56 0.57 0.57 0.55 0.53 0.52 0.49 0.49 0.56 0.65 0.66 0.61 0.61 0.62 0.68 0.66 0.67 0.62 0.63 0.62 0.63
0.58 0.56 0.55 0.54 0.55 0.56 0.58 0.60 0.62 0.63 0.63 0.60 0.58 0.57 0.56 0.52 0.49 0.40 0.34 0.42 0.51 0.54 0.56 0.58 0.58 0.56 0.54 0.53 0.49 0.50 0.57 0.62 0.63 0.61 0.62 0.69 0.65 0.66 0.63 0.61 0.63 0.62 0.62
0.60 0.58 0.56 0.55 0.55 0.58 0.59 0.61 0.65 0.66 0.65 0.65 0.64 0.60 0.57 0.50 0.46 0.43 0.38 0.40 0.41 0.48 0.56 0.60 0.59 0.58 0.56 0.56 0.55 0.53 0.58 0.61 0.65 0.64 0.63 0.64 0.64 0.63 0.62 0.62 0.62 0.61 0.58
0.62 0.58 0.58 0.54 0.54 0.57 0.61 0.64 0.66 0.68 0.71 0.68 0.68 0.66 0.65 0.61 0.57 0.52 0.45 0.42 0.41 0.49 0.54 0.59 0.60 0.60 0.59 0.59 0.57 0.55 0.58 0.61 0.61 0.62 0.61 0.58 0.60 0.60 0.61 0.62 0.60 0.58 0.55
0.78 0.70 0.64 0.61 0.58 0.58 0.60 0.65 0.67 0.70 0.75 0.74 0.73 0.73 0.73 0.69 0.65 0.59 0.50 0.42 0.39 0.44 0.51 0.51 0.60 0.60 0.61 0.61 0.59 0.58 0.58 0.59 0.59 0.59 0.57 0.56 0.55 0.54 0.57 0.57 0.56 0.53 0.51
1.06 0.96 0.84 0.74 0.68 0.64 0.64 0.65 0.67 0.70 0.75 0.77 0.77 0.77 0.76 0.76 0.71 0.64 0.60 0.53 0.41 0.35 0.40 0.50 0.51 0.62 0.63 0.64 0.64 0.61 0.59 0.61 0.61 0.60 0.57 0.53 0.50 0.48 0.51 0.52 0.52 0.49 0.49
1.11 1.12 1.06 0.95 0.83 0.76 0.71 0.69 0.69 0.74 0.74 0.79 0.83 0.86 0.86 0.85 0.81 0.73 0.65 0.59 0.52 0.43 0.37 0.51 0.53 0.58 0.62 0.63 0.65 0.63 0.60 0.60 0.59 0.58 0.56 0.51 0.50 0.47 0.49 0.53 0.49 0.45 0.46
1.21 1.20 1.11 1.07 1.04 0.93 0.83 0.76 0.73 0.75 0.76 0.82 0.88 0.89 0.90 0.91 0.87 0.83 0.74 0.65 0.58 0.53 0.43 0.50 0.56 0.58 0.58 0.58 0.60 0.62 0.62 0.60 0.56 0.53 0.52 0.48 0.47 0.46 0.50 0.52 0.51 0.44 0.43
1.24 1.26 1.23 1.16 1.11 1.03 0.96 0.88 0.82 0.81 0.83 0.88 0.91 0.93 0.92 0.93 0.91 0.90 0.84 0.73 0.64 0.59 0.51 0.45 0.53 0.54 0.54 0.57 0.57 0.56 0.58 0.59 0.55 0.52 0.46 0.45 0.45 0.47 0.51 0.52 0.46 0.43 0.39
1.24 1.26 1.24 1.21 1.21 1.17 1.12 1.04 0.91 0.84 0.85 0.95 0.99 1.00 1.01 1.00 0.94 0.94 0.92 0.84 0.75 0.66 0.59 0.51 0.49 0.55 0.55 0.56 0.53 0.55 0.54 0.53 0.52 0.52 0.47 0.45 0.44 0.47 0.54 0.52 0.45 0.43 0.42
1.23 1.20 1.13 1.16 1.18 1.22 1.20 1.20 1.15 1.07 0.97 0.97 1.03 1.02 1.05 1.05 1.05 1.00 0.95 0.90 0.82 0.73 0.65 0.57 0.53 0.52 0.52 0.52 0.51 0.47 0.45 0.49 0.48 0.51 0.46 0.43 0.44 0.51 0.54 0.51 0.47 0.46 0.42
1.23 1.23 1.23 1.22 1.22 1.18 1.22 1.14 1.21 1.20 1.18 1.09 1.07 1.07 1.11 1.11 1.13 1.06 1.02 1.00 0.93 0.82 0.72 0.63 0.59 0.58 0.56 0.53 0.50 0.52 0.49 0.49 0.50 0.51 0.46 0.42 0.42 0.48 0.52 0.53 0.51 0.44 0.42
1.13 1.16 1.16 1.17 1.15 1.15 1.17 1.18 1.18 1.21 1.21 1.17 1.17 1.17 1.17 1.17 1.16 1.18 1.15 1.06 1.01 0.90 0.82 0.73 0.67 0.64 0.64 0.64 0.60 0.55 0.50 0.45 0.42 0.51 0.46 0.42 0.46 0.40 0.44 0.53 0.51 0.46 0.42
1.06 1.06 1.10 1.14 1.15 1.13 1.10 1.16 1.20 1.21 1.17 1.17 1.20 1.19 1.19 1.21 1.22 1.17 1.18 1.14 1.12 1.06 0.98 0.89 0.78 0.76 0.74 0.71 0.63 0.59 0.56 0.51 0.48 0.50 0.48 0.43 0.45 0.41 0.47 0.45 0.45 0.46 0.42
0.94 0.98 1.00 1.04 1.06 1.07 1.06 1.07 1.16 1.12 1.09 1.11 1.17 1.20 1.19 1.19 1.20 1.19 1.17 1.14 1.14 1.10 1.06 1.00 0.94 0.86 0.83 0.77 0.72 0.67 0.62 0.57 0.58 0.57 0.51 0.41 0.46 0.54 0.48 0.42 0.41 0.44 0.45
0.92 0.93 1.00 1.01 1.05 1.06 1.14 1.07 1.12 1.12 1.04 1.06 1.14 1.15 1.17 1.15 1.17 1.17 1.14 1.09 1.09 1.10 1.13 1.09 1.01 0.93 0.88 0.85 0.80 0.73 0.66 0.62 0.56 0.54 0.53 0.52 0.60 0.48 0.41 0.39 0.41 0.42 0.41
0.91 0.95 0.94 0.98 1.02 1.05 1.13 1.11 1.12 1.10 1.00 1.07 1.08 1.12 1.14 1.11 1.12 1.13 1.08 1.05 0.98 1.02 1.03 1.03 1.00 0.99 0.95 0.87 0.82 0.78 0.72 0.63 0.58 0.56 0.64 0.61 0.55 0.43 0.41 0.43 0.39 0.40 0.41
Wind_Speed
31 30 29 27 26 25 23 22 19 17 16 12 10 8 8 6 4 2 2 2 2 3 3 4 4 5 6 8 9 10 10 11 12 13 14 16 17 18 18 19 20 21 21
33 32 31 29 27 26 24 22 20 18 16 13 11 9 8 7 5 3 3 2 2 2 2 2 3 4 5 6 8 8 9 10 11 12 13 15 16 17 18 18 19 20 20
34 33 32 30 28 27 25 23 21 19 17 14 12 10 9 8 6 4 4 3 2 2 1 1 1 2 3 4 6 7 8 8 10 11 12 14 15 16 17 18 18 19 19
35 34 32 31 30 27 26 24 22 20 17 15 13 10 10 8 7 6 5 4 4 3 2 1 1 1 2 3 4 6 6 7 8 10 11 13 14 15 16 16 17 17 18
36 35 33 31 30 28 27 25 23 21 18 16 13 11 10 9 8 8 7 5 5 4 4 3 2 2 2 3 3 5 6 6 7 9 10 11 13 14 15 16 16 17 17
37 35 33 32 31 29 28 26 24 22 20 17 14 11 11 10 10 9 8 8 7 6 5 5 4 4 4 3 4 4 5 6 7 8 9 11 12 13 14 15 16 16 16
37 35 34 33 32 30 29 27 25 23 21 19 15 12 11 11 11 12 11 10 9 8 7 7 6 5 5 5 5 6 6 6 7 8 9 10 11 12 13 14 15 16 16
37 36 34 33 32 31 29 28 26 24 22 20 17 13 12 12 13 13 13 12 11 11 10 9 8 7 7 7 7 7 7 7 7 8 9 10 11 12 13 14 14 15 15
37 36 35 34 33 32 30 29 28 26 23 21 21 15 13 14 15 15 15 15 14 13 12 11 11 10 9 9 9 8 8 8 8 8 9 10 11 12 12 13 14 14 14
37 36 35 34 33 32 31 30 29 27 25 23 22 17 16 14 15 15 17 17 16 15 14 14 13 13 12 11 11 10 10 10 9 10 10 11 11 12 12 12 13 14 14
37 36 36 35 34 33 32 31 29 28 26 25 23 20 17 16 15 15 16 18 18 18 17 16 15 15 14 13 12 12 11 11 11 11 11 11 12 12 13 13 13 14 14
37 36 36 35 34 34 33 32 31 29 28 27 26 24 21 19 18 17 16 18 19 19 19 19 18 17 16 15 15 14 14 13 13 13 13 13 13 13 13 14 14 15 15
37 37 36 36 35 34 33 33 32 31 30 29 28 26 25 23 21 20 19 19 19 20 20 20 20 20 19 18 17 17 16 16 16 15 15 15 15 15 15 15 15 16 15
37 37 37 37 36 35 35 34 34 33 32 31 30 29 27 26 24 23 22 21 21 21 22 21 22 22 21 21 20 19 19 18 18 18 18 17 17 16 17 17 16 17 16
38 38 38 38 37 37 37 36 36 35 34 33 32 31 31 29 28 27 26 26 24 23 24 24 23 24 24 24 23 22 22 21 21 21 20 20 19 19 18 18 18 17 17
39 40 40 39 38 38 38 37 37 37 37 36 35 34 33 32 31 30 30 29 28 26 25 26 26 25 26 26 25 25 24 23 23 23 23 22 21 21 20 20 20 20 19
38 40 40 40 41 40 40 40 39 39 39 38 38 37 36 34 33 33 32 32 31 30 28 28 28 28 27 27 27 27 27 26 26 25 25 24 24 24 23 23 23 22 21
38 38 39 41 41 42 42 42 41 41 41 41 40 39 39 38 36 35 35 35 35 34 31 30 30 29 29 30 29 29 29 28 28 27 26 27 26 25 25 25 23 22 22
37 38 37 36 40 41 43 44 44 44 43 43 42 42 41 40 39 38 38 37 37 37 35 33 32 32 32 32 31 31 30 30 30 29 29 28 28 27 27 25 23 24 23
38 39 41 38 39 40 41 43 44 45 45 46 45 45 44 44 43 41 40 39 38 38 37 36 35 34 34 33 33 32 32 32 32 31 30 29 28 28 27 27 27 27 26
37 39 40 39 39 39 39 41 43 44 44 45 47 46 46 44 43 44 42 40 39 39 39 37 36 35 35 34 35 34 34 33 33 31 31 31 30 30 30 30 30 28 27
36 36 38 39 39 39 38 39 40 41 44 46 46 50 48 46 45 45 44 43 42 41 40 39 38 38 37 37 36 36 35 33 33 34 33 33 33 32 33 33 31 31 28
34 36 37 39 40 39 38 40 39 40 40 40 43 45 49 48 46 46 48 45 43 43 43 41 40 40 39 38 37 36 37 36 35 34 35 35 35 34 36 35 33 31 30
30 33 36 37 38 40 39 39 39 40 40 40 42 44 44 46 48 46 43 44 43 42 41 39 39 39 39 38 39 38 38 37 36 36 36 35 36 38 36 34 33 32 31
28 30 32 35 38 40 40 40 39 39 39 36 35 37 38 39 39 41 42 41 44 43 44 44 42 41 41 41 42 40 39 39 39 39 38 37 37 37 35 35 34 33 32
24 25 28 31 32 35 36 38 37 39 36 38 36 35 35 35 36 37 38 40 38 39 39 39 40 40 40 40 40 41 41 40 40 39 39 40 37 35 35 36 35 34 33
Wind_Direction
201 199 197 196 193 189 188 188 190 190 186 185 184 181 181 180 181 174 151 126 103 92 95 85 69 55 48 45 45 44 42 40 38 36 36 33 31 29 27 26 25 25 25
201 199 198 196 195 193 193 193 191 189 190 189 191 191 190 190 193 192 187 160 135 124 106 89 69 55 49 45 41 40 40 38 37 33 32 30 29 27 25 25 25 25 25
200 199 198 198 197 196 195 193 191 189 192 192 195 195 196 197 200 204 205 207 193 172 148 109 74 50 42 36 33 31 30 30 29 27 25 24 23 24 23 22 23 24 24
200 199 199 199 197 197 196 195 194 192 194 194 197 201 202 208 213 216 219 224 221 218 223 221 233 356 18 16 18 18 18 19 18 16 15 16 18 18 18 19 19 19 21
200 199 200 199 198 198 198 198 197 196 195 197 201 207 213 218 220 224 226 228 228 228 232 233 248 263 314 334 347 356 360 4 5 5 7 8 10 12 13 14 14 15 16
199 199 199 199 199 199 199 199 199 200 200 200 203 210 218 224 227 228 231 231 230 234 234 236 244 260 273 298 318 327 337 345 352 353 356 360 2 4 7 9 10 11 11
199 200 200 200 200 200 200 201 200 201 203 205 209 215 225 231 233 235 233 234 235 237 238 240 249 260 270 276 288 304 319 320 330 340 344 348 352 357 0 1 4 5 6
200 200 201 201 202 202 203 203 204 205 207 209 215 220 233 239 238 236 236 236 239 239 242 245 251 258 269 276 282 289 301 313 314 324 332 338 342 346 349 354 357 358 1
201 202 202 203 204 205 206 207 208 209 209 215 214 230 237 242 235 240 238 238 240 243 244 245 250 257 265 272 280 284 292 303 306 314 321 328 332 336 341 344 350 352 354
202 203 204 205 207 208 209 210 211 213 214 218 221 234 240 237 240 243 241 240 241 243 245 246 251 257 262 268 275 279 284 291 297 304 311 316 322 327 332 337 342 346 349
205 206 207 209 210 212 213 213 215 217 220 222 226 231 238 241 241 245 245 242 242 245 246 247 252 255 259 264 269 274 277 284 290 296 303 310 315 319 323 327 331 334 338
208 210 211 213 214 215 216 218 219 221 223 226 230 233 237 241 243 246 249 244 243 245 246 249 252 254 257 261 266 270 273 279 284 291 297 302 307 310 315 318 322 326 329
213 214 215 217 218 219 221 222 223 225 227 229 232 235 238 242 244 246 249 247 247 248 250 251 252 254 256 258 263 267 271 274 278 285 290 296 300 304 307 311 313 317 320
217 217 219 220 222 222 224 225 227 228 230 233 235 237 241 242 245 247 248 248 251 252 253 255 253 254 256 259 263 266 269 272 276 280 285 289 293 296 300 304 306 309 312
221 221 221 223 224 225 227 228 230 231 233 235 238 240 242 245 247 248 249 248 250 253 253 255 256 255 256 258 261 264 267 270 273 277 280 284 287 290 293 297 301 302 304
224 224 224 226 227 228 229 231 233 234 235 238 240 241 243 246 248 249 249 249 251 253 257 255 256 258 256 258 260 263 266 269 272 274 277 279 282 285 287 290 293 295 297
225 225 226 228 230 231 232 233 235 236 237 239 241 243 245 246 248 249 250 250 250 252 255 257 257 258 258 259 260 262 264 267 270 272 273 275 278 281 282 284 286 288 291
226 227 229 231 232 234 235 235 237 239 240 240 242 243 245 246 248 249 250 251 250 251 254 255 256 257 258 259 261 262 264 266 268 270 272 275 275 276 280 282 281 283 284
228 227 227 232 234 236 237 239 240 241 241 242 243 244 246 247 248 250 251 251 251 251 253 255 257 257 258 259 262 263 263 265 266 269 271 273 274 274 276 277 278 281 282
230 230 231 235 236 239 241 239 240 242 243 244 246 246 246 248 249 248 250 250 251 252 253 254 257 256 258 258 261 261 263 265 267 267 268 269 271 272 271 274 276 279 278
233 232 233 237 238 239 241 243 242 242 242 246 247 248 246 248 247 249 249 250 250 251 252 254 256 258 258 258 259 261 263 264 265 265 266 266 268 269 268 273 277 274 273
233 233 235 238 238 239 243 243 241 245 245 248 249 248 246 247 250 249 249 250 250 250 252 254 256 257 257 258 259 259 262 262 264 262 265 264 268 268 268 275 271 273 271
235 237 239 239 238 241 244 242 243 245 247 249 250 247 247 248 247 248 249 251 250 250 252 253 252 256 258 257 257 259 260 261 263 265 263 265 266 267 273 270 270 269 268
239 240 240 241 242 243 244 244 244 247 248 251 254 250 247 248 248 247 244 248 248 248 250 251 254 256 257 258 258 260 260 261 263 265 263 266 266 271 270 266 267 267 266
243 244 244 243 243 244 244 245 247 247 246 249 251 249 248 245 245 244 244 245 248 249 250 252 254 257 258 259 259 259 259 261 263 264 262 266 269 269 266 266 264 265 263
247 246 247 247 248 244 244 245 247 246 247 249 250 247 245 248 248 244 245 246 249 249 249 251 255 256 258 258 259 259 259 260 263 264 263 265 267 264 267 264 261 260 261